Wind_Speed
36 34 33 31 30 30 30 30 30 29 29 29 29 29 30 29 29 30 29 30 31 32 34 35 37 38 39 40 41 40 39 40 40 39 39 38 37 35
35 33 32 30 29 29 29 29 29 29 30 30 30 30 31 31 31 32 32 32 32 33 33 34 35 37 38 40 41 42 41 40 40 38 37 38 37 36
33 32 31 30 28 28 29 29 30 30 31 31 31 31 32 33 33 34 34 34 33 34 34 34 35 36 37 38 40 42 42 41 41 40 38 37 36 36
32 30 29 29 28 28 29 30 30 31 32 33 33 34 34 35 36 36 36 36 36 36 36 35 35 35 37 38 39 40 41 40 39 39 38 37 36 35
29 29 28 27 27 28 29 30 30 31 32 33 34 35 35 36 36 37 38 38 38 37 37 36 35 35 35 36 38 39 39 39 39 39 39 37 36 35
28 28 27 27 27 27 28 29 30 31 32 33 34 35 36 37 38 38 38 39 39 38 37 37 36 35 35 35 35 37 38 38 38 38 36 35 35 35
26 25 24 24 25 26 27 28 29 30 31 32 34 35 36 37 38 38 38 39 39 38 37 37 36 35 35 34 34 34 35 35 35 36 35 34 34 35
20 20 20 21 22 23 25 26 27 29 30 31 33 34 35 36 36 36 37 37 37 37 36 36 36 35 34 33 32 32 32 32 33 34 34 33 34 35
17 17 18 19 20 21 22 23 24 25 27 28 30 31 32 33 34 34 35 35 35 35 34 34 35 34 33 32 31 30 29 30 31 32 33 34 35 36
13 14 15 15 16 17 18 19 20 22 24 26 27 29 30 31 32 33 33 34 34 33 32 31 31 32 32 31 31 29 28 28 29 31 32 33 36 39
10 11 12 12 13 14 15 17 19 21 23 26 28 30 31 32 33 33 33 32 32 32 31 31 29 29 29 29 29 28 26 25 26 28 31 33 36 39
9 9 9 10 11 12 15 17 19 21 23 25 27 29 30 30 31 32 32 31 30 30 30 29 29 28 27 27 26 27 28 26 25 25 27 31 34 36
7 8 9 10 11 13 15 17 19 22 24 26 27 28 29 29 29 29 29 29 29 28 28 27 27 26 26 25 24 24 25 24 23 22 24 25 28 32
7 8 9 10 11 13 15 17 20 23 25 26 27 28 28 27 27 26 26 26 26 25 25 25 26 26 25 24 23 23 23 23 22 22 21 22 24 27
9 9 9 10 11 14 16 18 21 23 25 26 26 26 26 25 24 23 22 22 22 22 22 23 24 24 25 25 24 24 23 23 23 23 23 23 22 23
10 9 9 10 12 14 16 18 20 23 24 25 25 25 24 23 22 22 21 20 20 19 19 20 22 23 24 24 24 25 25 25 26 25 25 25 24 23
10 10 10 10 11 13 15 17 19 21 23 24 24 24 23 22 21 20 20 20 19 19 18 19 20 21 22 24 25 26 27 28 29 28 28 27 27 26
11 11 10 10 11 12 14 16 19 21 23 24 25 25 24 23 22 21 20 20 19 19 19 19 20 21 22 22 24 26 28 29 31 32 33 32 32 33
12 12 11 11 11 11 13 16 18 21 23 24 25 26 26 25 24 22 22 21 20 20 19 19 20 21 22 23 24 25 27 30 32 33 34 36 36 36
13 13 12 12 11 11 12 15 18 20 23 25 26 27 27 27 26 24 23 22 22 21 21 20 21 21 22 23 24 25 27 28 31 33 35 36 37 38
15 14 13 12 11 11 12 14 17 19 22 24 26 27 28 28 27 26 25 24 23 22 22 21 21 22 22 23 24 24 25 27 29 31 34 36 37 38
17 16 14 14 13 12 12 14 16 18 21 24 26 28 29 30 30 29 28 26 25 24 23 22 21 22 22 23 23 24 25 26 28 30 32 34 37 39
18 17 16 15 14 13 13 14 16 18 21 23 26 28 30 31 32 31 30 29 28 26 24 23 22 21 21 21 22 23 24 26 27 29 30 31 34 37
Wind_Direction
259 256 254 256 259 262 266 268 268 268 268 268 270 273 275 277 279 280 282 282 281 280 279 278 275 274 272 270 265 263 263 261 258 257 255 252 248 243
258 255 256 257 260 262 265 266 267 268 268 269 271 273 275 276 278 280 283 285 284 284 284 281 279 276 274 271 266 263 262 261 257 256 256 253 247 241
255 254 255 258 259 261 264 266 268 269 270 271 273 274 275 277 278 280 282 283 284 285 285 285 283 278 275 272 268 263 260 258 256 255 255 253 248 242
256 256 257 259 261 263 265 267 269 271 272 273 274 275 277 278 279 279 281 282 283 284 284 284 284 282 278 274 269 263 258 256 255 253 252 252 250 243
254 257 259 261 264 267 268 269 271 272 273 274 275 277 278 279 280 280 280 281 281 282 283 283 283 283 282 277 270 263 259 255 253 252 250 247 246 244
255 259 262 264 267 269 271 273 274 275 276 277 277 278 279 279 280 280 280 280 279 280 280 281 281 281 281 279 273 264 258 255 251 248 246 244 243 241
257 262 265 268 270 271 273 275 276 278 279 280 280 281 281 281 281 280 280 279 278 278 278 278 278 278 278 279 277 268 259 253 248 244 240 242 240 237
260 262 264 267 270 273 276 278 280 282 283 284 285 285 285 284 283 282 281 280 278 277 276 275 274 275 275 275 277 272 260 251 246 242 238 238 236 235
261 262 265 269 272 276 279 282 286 288 289 290 290 290 289 288 286 284 283 281 280 278 275 274 273 272 271 270 272 271 265 255 247 241 235 232 231 230
260 264 268 273 277 282 286 289 292 294 296 296 295 294 293 291 289 287 284 282 280 279 276 275 273 271 270 269 271 270 266 257 247 242 237 232 229 227
266 271 276 281 285 289 294 298 301 302 302 301 300 298 296 294 291 289 286 283 280 277 274 273 271 271 269 269 270 270 267 258 248 242 237 232 230 229
272 277 283 289 295 301 304 307 308 308 307 305 303 301 299 296 293 290 286 282 279 276 273 271 270 269 269 268 267 266 265 265 258 247 241 237 236 234
278 285 292 297 303 308 312 314 314 314 313 311 308 305 302 299 295 291 287 284 280 276 273 270 268 265 264 264 264 263 262 265 261 256 248 242 238 234
281 287 295 301 307 313 318 319 320 320 319 318 315 311 308 305 302 297 291 287 283 278 274 270 266 263 260 259 258 257 255 256 255 255 253 247 241 237
286 291 296 303 311 318 322 324 326 326 326 324 322 320 317 313 310 305 298 293 287 282 277 272 268 264 260 257 255 252 250 249 248 248 249 249 245 240
284 288 294 305 314 321 326 329 330 331 332 331 329 327 323 319 315 310 305 300 295 289 282 277 273 267 262 258 255 252 249 247 245 244 241 242 242 240
278 281 290 303 312 319 325 331 335 338 338 338 336 334 331 326 320 314 308 304 300 296 289 282 277 273 267 260 256 253 250 248 246 244 243 242 242 240
271 273 283 293 302 314 327 336 342 344 345 344 342 339 336 332 326 320 314 308 303 298 293 288 282 278 273 266 259 254 250 248 247 248 247 246 245 244
264 266 274 285 299 314 329 340 346 349 349 349 347 345 342 338 333 326 319 313 308 303 297 292 287 282 277 270 263 257 252 249 248 246 247 247 248 247
258 261 268 279 294 311 327 339 346 350 352 352 350 348 346 343 338 333 326 320 314 308 303 297 291 285 280 275 269 263 257 253 250 248 247 246 247 247
256 258 264 275 288 304 321 335 342 346 349 350 350 350 348 345 343 339 334 328 322 316 309 302 296 290 285 279 274 269 264 258 253 250 248 247 247 246
255 257 262 270 282 296 312 325 334 340 344 347 348 348 348 347 345 342 339 334 329 323 317 310 302 295 289 284 278 273 267 262 258 253 250 249 247 246
254 256 261 267 278 290 304 316 325 332 338 341 344 345 346 346 346 344 341 337 333 328 322 317 310 303 296 290 284 278 271 266 262 258 255 251 249 247
Height
5765 5766 5767 5767 5769 5770 5772 5774 5776 5777 5777 5778 5778 5778 5778 5778 5778 5778 5778 5778 5777 5778 5778 5778 5778 5778 5778 5779 5781 5782 5783 5784 5786 5787 5789 5791 5792 5795
5757 5758 5759 5760 5761 5763 5765 5766 5768 5769 5769 5770 5770 5770 5770 5770 5770 5770 5769 5769 5769 5769 5768 5768 5768 5768 5768 5769 5770 5771 5772 5774 5775 5777 5779 5781 5783 5785
5748 5749 5751 5752 5753 5755 5757 5759 5760 5761 5761 5762 5762 5762 5762 5761 5761 5761 5761 5760 5760 5759 5759 5758 5757 5757 5757 5758 5758 5759 5760 5762 5764 5766 5768 5771 5773 5775
5741 5742 5743 5745 5747 5748 5750 5751 5752 5753 5753 5753 5753 5753 5753 5752 5752 5752 5751 5751 5751 5750 5749 5749 5748 5747 5746 5746 5747 5748 5749 5750 5753 5755 5758 5761 5763 5765
5734 5735 5737 5738 5740 5741 5742 5743 5744 5744 5745 5745 5745 5744 5743 5743 5742 5742 5742 5741 5741 5740 5740 5739 5738 5737 5736 5735 5735 5736 5738 5740 5742 5744 5746 5749 5752 5755
5727 5729 5730 5732 5733 5734 5735 5736 5736 5736 5736 5736 5735 5735 5734 5733 5733 5732 5732 5731 5730 5730 5729 5729 5728 5728 5727 5726 5725 5725 5727 5728 5730 5733 5736 5739 5742 5745
5720 5722 5724 5725 5726 5727 5728 5728 5728 5727 5727 5727 5726 5725 5724 5723 5723 5722 5721 5721 5720 5719 5719 5718 5718 5718 5717 5716 5715 5715 5716 5717 5719 5722 5725 5729 5732 5735
5715 5716 5718 5719 5720 5720 5720 5720 5720 5719 5718 5718 5717 5715 5714 5713 5712 5711 5710 5710 5709 5709 5708 5708 5708 5707 5707 5707 5706 5706 5706 5707 5709 5712 5715 5719 5723 5726
5710 5711 5712 5713 5713 5713 5713 5713 5712 5711 5710 5709 5708 5706 5705 5704 5702 5701 5700 5699 5698 5697 5697 5697 5697 5697 5697 5697 5697 5697 5697 5698 5700 5702 5705 5709 5713 5716
5705 5706 5707 5707 5707 5707 5707 5707 5706 5704 5703 5702 5700 5698 5696 5694 5693 5691 5690 5689 5687 5687 5687 5687 5687 5687 5687 5688 5688 5688 5688 5689 5691 5693 5696 5699 5703 5707
5701 5702 5702 5702 5702 5702 5702 5701 5700 5698 5697 5695 5692 5690 5688 5685 5683 5681 5680 5679 5678 5677 5677 5677 5677 5677 5678 5678 5679 5680 5680 5681 5682 5684 5687 5691 5694 5698
5697 5698 5698 5698 5698 5698 5697 5696 5694 5693 5690 5688 5685 5682 5679 5677 5674 5672 5670 5669 5668 5668 5667 5667 5667 5668 5669 5669 5670 5671 5672 5673 5675 5676 5679 5682 5686 5689
5694 5694 5694 5694 5694 5694 5693 5691 5689 5687 5684 5681 5678 5675 5672 5669 5666 5663 5660 5659 5658 5657 5657 5658 5658 5659 5660 5661 5662 5663 5664 5666 5668 5669 5671 5674 5677 5681
5691 5691 5691 5691 5691 5690 5688 5687 5684 5682 5678 5675 5671 5667 5664 5660 5657 5654 5652 5650 5649 5649 5648 5649 5649 5650 5651 5652 5654 5655 5657 5659 5661 5662 5664 5667 5670 5673
5687 5688 5688 5687 5687 5686 5684 5682 5679 5676 5673 5669 5665 5661 5657 5653 5650 5647 5645 5643 5641 5641 5640 5640 5640 5641 5642 5644 5646 5647 5649 5651 5653 5655 5658 5660 5663 5665
5684 5684 5684 5684 5683 5682 5680 5678 5675 5672 5668 5664 5659 5655 5651 5648 5644 5642 5639 5637 5636 5634 5634 5633 5632 5633 5634 5635 5637 5639 5641 5643 5646 5648 5650 5653 5656 5658
5681 5681 5681 5681 5680 5679 5678 5675 5672 5668 5664 5660 5655 5651 5647 5643 5640 5637 5634 5632 5630 5629 5628 5627 5626 5626 5626 5627 5629 5631 5633 5635 5637 5639 5642 5645 5648 5651
5677 5677 5678 5678 5677 5676 5674 5672 5668 5664 5660 5656 5652 5647 5643 5639 5635 5632 5629 5627 5625 5623 5622 5621 5620 5619 5619 5620 5621 5622 5624 5626 5628 5630 5633 5636 5639 5642
5673 5674 5674 5674 5673 5672 5670 5668 5665 5661 5657 5653 5649 5644 5640 5636 5632 5628 5625 5622 5619 5617 5616 5614 5613 5612 5612 5612 5612 5613 5615 5616 5618 5621 5623 5625 5628 5632
5669 5670 5670 5670 5669 5668 5667 5664 5662 5658 5655 5651 5646 5642 5637 5632 5628 5624 5620 5617 5614 5611 5609 5608 5606 5605 5604 5604 5603 5604 5605 5607 5608 5610 5612 5615 5617 5620
5665 5666 5666 5666 5665 5664 5663 5661 5658 5656 5652 5648 5644 5639 5635 5630 5625 5620 5616 5612 5608 5605 5603 5601 5599 5597 5596 5595 5595 5595 5596 5597 5598 5600 5602 5604 5606 5609
5660 5661 5661 5661 5661 5660 5659 5657 5655 5653 5649 5646 5642 5637 5632 5627 5621 5616 5612 5607 5603 5599 5596 5594 5592 5590 5588 5587 5587 5587 5587 5587 5588 5589 5591 5593 5595 5598
5655 5656 5657 5657 5656 5656 5655 5653 5651 5649 5646 5643 5639 5634 5629 5624 5618 5613 5608 5603 5598 5594 5590 5587 5585 5583 5581 5579 5578 5578 5578 5578 5578 5579 5581 5582 5584 5586